2001 DC77 

Epoch 2001 Mar. 12.0 TT = JDT 2451980.5                 Nakano

M 353.31827              (2000.0)            P               Q

n   0.24340858     Peri.  195.05393     -0.98001666     +0.19864425

a   2.5404587      Node   356.35556     -0.16142537     -0.82472728

e   0.4994554      Incl.    9.40144     -0.11622909     -0.52949540

P   4.05           H   19.3           G   0.15           U   *

Residuals in seconds of arc 

010220 704  1.1-  0.3+    010222 704  0.0   0.5+    010313 739  1.0-  1.0+  

010220 704  1.5-  1.3+    010222 704  0.2-  0.6+    010313 739  2.0+  1.6-  

010220 704  0.2+  0.1+    010222 704  1.2+  0.1-    010313 739  0.9-  1.7-  

010220 704  0.9+  0.1+    010222 926  0.1-  0.1-    010313 413  0.1+  0.4+  

010220 704  1.4+  0.8-    010222 926  0.2-  0.2+    010313 413  0.4+  0.6+  

010221 859  0.2-  0.9-    010222 926  0.0   0.2+    010313 413  0.6+  0.5+  

010221 859  0.4-  0.4-    010222 587  0.1-  0.7+    010318 704  0.1+  0.2+  

010221 859  1.3-  0.3-    010222 587  0.4+  0.0     010318 704  0.2-  0.3+  

010221 704  0.4+  0.1-    010222 106  0.3+  0.6+    010318 704  0.4-  0.5-  

010221 704  0.1-  0.7+    010223 106  0.1+  1.4-    010318 704  0.1+  0.4+  

010221 704  1.2-  1.8+    010223 106  1.0+  0.8-    010318 360  0.1+  0.1+  

010221 704  1.3+  0.2+    010227 926  0.1-  0.3+    010318 360  0.2+  0.3+  

010221 704  0.1+  0.2+    010227 926  0.0   0.0     010318 360  0.4-  0.4+  

010222 918  0.4+  0.5-    010227 926  1.0-  0.6-    010321 608  0.1+  0.6-  

010222 918  0.0   0.2-    010304 704  0.8-  0.5+    010321 608  0.2+  0.3-  

010222 918  0.2+  0.4-    010304 704  0.2+  0.4+    010321 608  0.6-  1.7-  

010222 918  0.2-  0.3-    010304 704  0.3+  0.5+    010321 402  0.4-  0.5+  

010222 704  0.3+  0.0     010304 704  0.1+  0.6+    010321 402  0.9+  0.0   

010222 704  0.1+  1.7-    010304 704  1.0-  0.7-    010321 402  0.2-  1.3+  

 

NAKANO

         **** Don't distribute anyone except personal use only ****

                (C) Copyright 2001 OAA/ComputingSection

write mail from CFAD0::NAKANO on 2001-03-23 04:43:35(JST).

 





–ß‚è‚Ü‚·B